Weather History for KBOI - April, 2014

Change the Weather History Date:

Thursday, April 24, 2014

  Actual Average Record
Temperature  
Mean Temperature 53 °F 53 °F  
Max Temperature 62 °F 65 °F 91 °F (1977)
Min Temperature 44 °F 41 °F 22 °F (1950)
Degree Days  
Heating Degree Days 12 13  
Month to date heating degree days 325 360  
Since 1 July heating degree days 5253 5155  
Cooling Degree Days 0 0  
Month to date cooling degree days 0 0  
Year to date cooling degree days 0 0  
Growing Degree Days 2 (Base 50)    
Moisture  
Dew Point 40 °F    
Average Humidity 66    
Maximum Humidity 86    
Minimum Humidity 46    
Precipitation  
Precipitation 0.29 in 0.04 in 0.95 in (1980)
Month to date precipitation 1.42 0.98  
Year to date precipitation 6.77 4.60  
Snow  
Snow 0.00 in 0.00 in 0.30 in (1984)
Month to date snowfall 0.0 0.3  
Since 1 July snowfall 14.4 19.2  
Snow Depth 0.00 in    
Sea Level Pressure  
Sea Level Pressure 29.89 in    
Wind  
Wind Speed 7 mph (SE)    
Max Wind Speed 22 mph    
Max Gust Speed 25 mph    
Visibility 9 miles    
Events Rain , Thunderstorm    
T = Trace of Precipitation, MM = Missing Value Source: NWS Daily Summary

Daily Weather History Graph

Daily Weather History Graph

Search for Another Location

Airport or City:

Trip Planner

Search our weather history database for the weather conditions in past years. The results will help you decide how hot, cold, wet, or windy it might be!

Date:

Astronomy

Apr. 24, 2014 Rise Set
Actual Time 6:47 AM MDT 8:39 PM MDT
Civil Twilight 6:17 AM MDT 9:09 PM MDT
Nautical Twilight 5:39 AM MDT 9:47 PM MDT
Astronomical Twilight 4:59 AM MDT 10:28 PM MDT
Moon 4:10 AM MDT (4/24) 3:51 PM MDT (4/24)
Length of Visible Light 14h 52m
Length of Day
13h 51m
Waning Crescent, 24% of the Moon is Illuminated
Apr 24
Waning Crescent
Apr 29
New
May 6
First Quarter
May 14
Full
May 21
Last Quarter

Hourly Weather History & Observations

Time (MDT) Temp. Windchill Dew Point Humidity Pressure Visibility Wind Dir Wind Speed Gust Speed Precip Events Conditions
12:53 AM 48.0 °F - 34.0 °F 58% 29.95 in 10.0 mi ESE 9.2 mph - N/A   Overcast
1:53 AM 48.0 °F - 33.1 °F 56% 29.93 in 10.0 mi SE 5.8 mph - N/A   Overcast
2:53 AM 46.9 °F - 34.0 °F 61% 29.94 in 10.0 mi South 4.6 mph - N/A   Overcast
3:53 AM 48.0 °F - 34.0 °F 58% 29.91 in 10.0 mi Calm Calm - N/A   Overcast
4:53 AM 46.0 °F 43.1 °F 35.1 °F 66% 29.92 in 10.0 mi SW 5.8 mph - N/A   Overcast
5:53 AM 46.0 °F 43.9 °F 33.1 °F 61% 29.91 in 10.0 mi South 4.6 mph - N/A   Overcast
6:53 AM 46.9 °F - 34.0 °F 61% 29.91 in 10.0 mi SSE 4.6 mph - 0.00 in Rain Light Rain
7:53 AM 44.1 °F 39.5 °F 39.0 °F 82% 29.94 in 7.0 mi ESE 8.1 mph - 0.05 in Rain Light Rain
8:53 AM 45.0 °F 40.6 °F 39.9 °F 82% 29.94 in 7.0 mi ESE 8.1 mph - 0.06 in Rain Light Rain
9:53 AM 46.9 °F - 41.0 °F 80% 29.93 in 10.0 mi ESE 16.1 mph - 0.02 in Rain Light Rain
10:53 AM 51.1 °F - 41.0 °F 68% 29.93 in 10.0 mi ESE 13.8 mph - N/A   Overcast
11:53 AM 54.0 °F - 41.0 °F 62% 29.94 in 10.0 mi ESE 13.8 mph - N/A   Mostly Cloudy
12:53 PM 55.9 °F - 41.0 °F 57% 29.92 in 10.0 mi East 8.1 mph - N/A   Mostly Cloudy
1:53 PM 57.0 °F - 42.1 °F 57% 29.90 in 10.0 mi East 8.1 mph - N/A   Mostly Cloudy
2:53 PM 57.9 °F - 41.0 °F 53% 29.88 in 10.0 mi ESE 4.6 mph - 0.00 in   Mostly Cloudy
3:53 PM 59.0 °F - 41.0 °F 51% 29.86 in 10.0 mi SSE 4.6 mph - N/A   Scattered Clouds
4:53 PM 60.1 °F - 39.9 °F 47% 29.84 in 10.0 mi East 5.8 mph - 0.00 in   Mostly Cloudy
5:53 PM 61.0 °F - 41.0 °F 48% 29.83 in 10.0 mi East 5.8 mph - 0.00 in Rain Light Rain
6:33 PM 60.8 °F - 39.2 °F 45% 29.83 in 10.0 mi SE 4.6 mph - 0.00 in Thunderstorm Mostly Cloudy
6:43 PM 60.8 °F - 39.2 °F 45% 29.84 in 10.0 mi Calm Calm - 0.00 in Thunderstorm Thunderstorm
6:53 PM 55.9 °F - 41.0 °F 57% 29.83 in 10.0 mi South 20.7 mph 25.3 mph 0.00 in Thunderstorm Thunderstorm
7:20 PM 51.8 °F - 42.8 °F 71% 29.89 in 1.8 mi WNW 6.9 mph - 0.06 in Rain , Thunderstorm Heavy Thunderstorms and Rain
7:31 PM 51.8 °F - 42.8 °F 71% 29.88 in 3.0 mi ESE 5.8 mph - 0.14 in Rain , Thunderstorm Light Rain
7:53 PM 51.1 °F - 45.0 °F 80% 29.86 in 10.0 mi East 9.2 mph - 0.15 in   Overcast
8:53 PM 50.0 °F - 44.1 °F 80% 29.85 in 10.0 mi Calm Calm - N/A   Mostly Cloudy
9:53 PM 48.9 °F - 45.0 °F 86% 29.87 in 10.0 mi Calm Calm - N/A   Overcast
10:53 PM 48.9 °F - 42.1 °F 77% 29.85 in 10.0 mi SE 9.2 mph - N/A   Clear
11:53 PM 46.9 °F - 43.0 °F 86% 29.83 in 10.0 mi Calm Calm - N/A   Partly Cloudy